[[{"header":{"parameterUnit":"m.s-1","parameterCategory":1,"la1":30.2991,"la2":30.254,"lo1":-89.0895,"lo2":-89.0444,"dy":0.0017,"dx":0.0017,"nx":28,"ny":28,"refTime":"2024-09-02T21:00:00:Z","depth":0,"parameterNumber":2,"parameterNumberName":"U-component_of_WINDS"},"data":[0,0,0,0,0,0,0,0,0,0,0,0,0,0,0,0,0,0,0,0,0,0,0,0,0,0,0,0,0,0,0,0,0,0,0,0,0,0,0,0,0,0,0,0,0,0,0,0,0,0,0,0,0,0,0,0,0,0,-5.8386,-5.8387,0,-5.8417,-5.8417,-5.8418,-5.8354,-5.8352,-5.835,-5.8348,-5.8377,-5.838,-5.8383,0,0,0,0,0,0,0,0,0,0,0,0,0,-5.8269,-5.8272,-5.8386,-5.8387,-5.8387,-5.8417,-5.8417,-5.8418,-5.8354,-5.8352,-5.8349,-5.8347,-5.8376,-5.838,-5.8383,0,0,0,0,0,0,0,0,0,0,0,0,0,-5.8312,-5.8272,-5.8386,-5.8359,-5.8357,-5.8417,-5.8417,-5.8418,-5.8355,-5.8352,-5.8349,-5.8346,-5.8375,-5.8379,-5.8383,-5.847,0,0,-5.8396,-5.8397,0,0,0,0,0,0,0,0,-5.831,-5.8316,-5.8363,-5.8361,-5.8359,-5.8378,-5.8387,-5.8435,-5.8356,-5.8356,-5.8348,-5.8344,-5.838,-5.8384,-5.8396,-5.8472,-5.8473,-5.8396,-5.8399,-5.84,-5.8401,0,0,0,0,0,0,0,-5.8307,-5.8315,-5.8398,-5.8363,-5.8361,-5.8344,-5.8347,-5.8396,-5.8385,-5.8355,-5.8351,-5.8355,-5.8378,-5.8392,-5.8396,-5.8474,-5.8396,-5.84,-5.8402,-5.8404,-5.8618,-5.8621,0,0,0,0,0,0,-5.8307,-5.8313,-5.8397,-5.8399,-5.8326,-5.8349,-5.8352,-5.8375,-5.8384,-5.8382,-5.8358,-5.8352,-5.8387,-5.8392,-5.8397,-5.8496,-5.84,-5.8404,-5.8406,-5.8615,-5.8619,-5.8622,0,0,0,0,0,0,-5.8305,-5.8316,-5.8396,-5.8355,-5.8364,-5.8354,-5.8381,-5.8377,-5.8391,-5.8386,-5.8384,-5.8374,-5.8385,-5.8391,-5.8452,-5.8496,-5.8406,-5.841,-5.8611,-5.8616,-5.862,-5.8696,0,0,0,0,0,0,-5.8302,-5.8315,-5.8349,-5.8356,-5.8366,-5.8451,-5.8384,-5.838,-5.8399,-5.8391,-5.8401,-5.8399,-5.8383,-5.8446,-5.8456,-5.85,-5.8413,-5.8607,-5.8613,-5.8619,-5.869,-5.8703,-5.8715,0,0,0,0,0,-5.8298,-5.837,-5.8351,-5.8362,-5.8408,-5.8454,-5.846,-5.844,-5.8403,-5.8435,-5.8432,-5.8399,-5.8491,-5.8453,-5.8463,-5.8509,-5.8604,-5.8611,-5.8618,-5.8684,-5.87,-5.8714,0,0,0,0,0,0,-5.8368,-5.837,-5.835,-5.8426,-5.844,-5.8443,-5.8484,-5.8459,-5.8483,-5.8475,-5.8449,-5.8452,-5.8516,-5.852,-5.8477,-5.8592,-5.8541,-5.855,-5.8587,-5.8602,-5.8615,-5.8611,-5.8416,0,0,0,0,0,-5.8393,-5.8431,-5.843,-5.8498,-5.8506,-5.8494,-5.8514,-5.8497,-5.851,-5.8516,-5.8517,-5.8531,-5.8562,-5.8583,-5.8612,-5.8691,-5.869,-5.8728,-5.874,-5.8751,-5.8758,-5.8796,-5.8811,-5.8646,-5.8646,-5.8646,0,0,-5.8444,-5.8449,-5.8475,-5.8512,-5.8521,-5.8559,-5.85,-5.8543,-5.857,-5.8522,-5.8578,-5.858,-5.8593,-5.8662,-5.8693,-5.8667,-5.8804,-5.876,-5.8768,-5.877,-5.8805,-5.882,-5.8834,-5.8651,-5.865,-5.8649,0,0,-5.8554,-5.8564,-5.8619,-5.8629,-5.8644,-5.8635,-5.8649,-5.8656,-5.8654,-5.871,-5.8674,-5.8706,-5.8762,-5.8772,-5.8784,-5.8897,-5.8866,-5.8908,-5.8971,-5.9008,-5.9021,-5.9032,-5.9068,-5.9082,-5.8916,-5.8916,-5.8916,0,-5.8614,-5.8671,-5.865,-5.8695,-5.8711,-5.867,-5.8724,-5.8735,-5.8758,-5.8769,-5.8741,-5.8807,-5.8814,-5.8883,-5.891,-5.8923,-5.8935,-5.8904,-5.9021,-5.9032,-5.9043,-5.9076,-5.909,-5.8921,-5.892,-5.892,-5.8919,0,-5.8742,-5.8782,-5.8824,-5.8847,-5.8868,-5.8918,-5.8903,-5.8927,-5.8908,-5.8902,-5.8958,-5.8965,-5.8993,-5.9009,-5.8992,-5.9074,-5.9057,-5.9026,-5.8972,-5.9063,-5.9094,-5.9107,-5.8927,-5.8926,-5.8924,-5.8923,0,0,-5.8896,-5.8906,-5.8921,-5.8929,-5.8942,-5.8971,-5.9019,-5.9046,-5.9064,-5.9083,-5.9118,-5.9166,-5.9136,-5.915,-5.9134,-5.9168,-5.9251,-5.9131,-5.9131,-5.9149,-5.9338,-5.9358,-5.9373,-5.9233,-5.9235,-5.9237,-5.9335,0,-5.9001,-5.9081,-5.9063,-5.9141,-5.9175,-5.9137,-5.9177,-5.9188,-5.9184,-5.9212,-5.9207,-5.9239,-5.92,-5.9207,-5.9239,-5.9235,-5.9288,-5.9228,-5.9263,-5.9264,-5.9256,-5.939,-5.9413,-5.9504,-5.9347,-5.935,-5.9351,0,-5.9134,-5.9156,-5.9237,-5.9241,-5.9255,-5.9291,-5.9313,-5.9341,-5.9352,-5.9347,-5.9362,-5.9339,-5.9383,-5.9333,-5.9392,-5.9351,-5.9365,-5.9365,-5.9368,-5.9367,-5.931,-5.9388,-5.9533,-5.9545,-5.9371,-5.9369,-5.9368,0,-5.9232,-5.9282,-5.9335,-5.9345,-5.9352,-5.9378,-5.9382,-5.9391,-5.9407,-5.9427,-5.9437,-5.9462,-5.9474,-5.9493,-5.9477,-5.9443,-5.9537,-5.9486,-5.953,-5.953,-5.9548,-5.9546,-5.9693,-5.9565,-5.9565,-5.9565,-5.9565,0,-5.9349,-5.9399,-5.9379,-5.9411,-5.9465,-5.9445,-5.9498,-5.9498,-5.9506,-5.9536,-5.9507,-5.9536,-5.9514,-5.9541,-5.9529,-5.9577,-5.9584,-5.9579,-5.9574,-5.9579,-5.9579,-5.9584,-5.9576,-5.9568,-5.9568,-5.9567,-5.9566,0,-5.9465,-5.9455,-5.951,-5.9512,-5.9514,-5.9553,-5.9555,-5.9584,-5.9578,-5.9617,-5.9625,-5.9615,-5.9645,-5.9631,-5.9664,-5.9655,-5.9715,-5.9705,-5.9711,-5.9706,-5.975,-5.9744,-5.9901,-5.9918,-5.9784,-5.9785,-5.9786,0,-5.9538,-5.9575,-5.9581,-5.9599,-5.9606,-5.9636,-5.9652,-5.9633,-5.9651,-5.9666,-5.9693,-5.9721,-5.9741,-5.9791,-5.9785,-5.9809,-5.9796,-5.9849,-5.9799,-5.9801,-5.9791,-5.9787,-5.9788,-5.9857,-5.9859,-5.986,-5.9861,0,-5.9667,-5.9659,-5.9684,-5.9707,-5.9727,-5.9744,-5.9758,-5.9775,-5.9756,-5.9778,-5.9808,-5.9824,-5.9856,-5.9882,-5.9902,-5.9905,-5.9879,-5.9878,-5.9888,-5.9891,-5.9891,-5.9887,-5.9733,-5.9873,-5.9872,-5.9871,-5.9871,-5.987,-5.976,-5.979,-5.9798,-5.9826,-5.9834,-5.9848,-5.9874,-5.9871,-5.9896,-5.992,-5.9908,-5.9942,-5.995,-5.9975,-5.9982,-6.0007,-5.9986,-6.0002,-6.0006,-6.0009,-6.0012,-5.9892,-6.0012,-6.0011,-6.0011,-6.0011,-6.001,0,-5.9883,-5.9886,-5.9912,-5.9932,-5.9954,-5.9929,-5.9943,-5.9962,-5.9992,-6.0003,-6.0023,-6.0056,-6.0081,-6.0079,-6.0101,-6.0122,-6.011,-6.0128,-6.0124,-6.0124,-6.0032,-6.0019,-6.0137,-6.0137,-6.0137,-6.0137,-6.0137,-6.0137,-5.9949,-5.9997,-5.999,-6.0041,-6.0043,-6.0076,-6.0085,-6.0097,-6.0105,-6.0143,-6.0163,-6.0162,-6.0166,-6.0188,-6.021,-6.0208,-6.0216,-6.0237,-6.0231,-6.0144,-6.0131,-6.0119,-6.0106,-6.024,-6.024,-6.032,-6.032,-6.0321]},{"header":{"parameterUnit":"m.s-1","parameterCategory":1,"la1":30.2991,"la2":30.254,"lo1":-89.0895,"lo2":-89.0444,"dy":0.0017,"dx":0.0017,"nx":28,"ny":28,"refTime":"2024-09-02T21:00:00:Z","depth":0,"parameterNumber":3,"parameterNumberName":"V-component_of_WINDS"},"data":[0,0,0,0,0,0,0,0,0,0,0,0,0,0,0,0,0,0,0,0,0,0,0,0,0,0,0,0,0,0,0,0,0,0,0,0,0,0,0,0,0,0,0,0,0,0,0,0,0,0,0,0,0,0,0,0,0,0,0.5965,0.5965,0,0.6008,0.6009,0.6009,0.5932,0.593,0.5927,0.5925,0.5973,0.5976,0.598,0,0,0,0,0,0,0,0,0,0,0,0,0,0.5819,0.5822,0.5965,0.5965,0.5966,0.6008,0.6009,0.6009,0.5933,0.593,0.5926,0.5924,0.5971,0.5976,0.598,0,0,0,0,0,0,0,0,0,0,0,0,0,0.5875,0.5823,0.5964,0.5932,0.593,0.6008,0.6009,0.601,0.5933,0.593,0.5926,0.5922,0.597,0.5975,0.5981,0.6093,0,0,0.5998,0.6,0,0,0,0,0,0,0,0,0.5872,0.588,0.5937,0.5935,0.5932,0.5961,0.5975,0.6038,0.5934,0.5932,0.5925,0.592,0.5972,0.5977,0.5994,0.6095,0.6097,0.5998,0.6002,0.6004,0.6005,0,0,0,0,0,0,0,0.5868,0.5878,0.5982,0.5938,0.5935,0.5918,0.5921,0.5987,0.5974,0.5932,0.5927,0.5933,0.597,0.5989,0.5995,0.6098,0.5998,0.6003,0.6006,0.6008,0.6299,0.6303,0,0,0,0,0,0,0.5868,0.5875,0.598,0.5983,0.5892,0.5923,0.5927,0.5956,0.5973,0.5971,0.5936,0.5929,0.5981,0.5988,0.5996,0.6133,0.6004,0.6009,0.6012,0.6294,0.63,0.6304,0,0,0,0,0,0,0.5865,0.5878,0.5979,0.5928,0.5939,0.593,0.5962,0.5959,0.5977,0.5975,0.5973,0.5957,0.5978,0.5988,0.607,0.6133,0.6012,0.6017,0.6289,0.6296,0.6302,0.6405,0,0,0,0,0,0,0.5861,0.5877,0.5918,0.5929,0.5942,0.6051,0.5966,0.5962,0.5987,0.5978,0.5995,0.5994,0.5976,0.6063,0.6076,0.6139,0.6021,0.6284,0.6292,0.63,0.6396,0.6414,0.643,0,0,0,0,0,0.5856,0.5945,0.5921,0.5934,0.5994,0.6055,0.6063,0.6039,0.5992,0.6035,0.6034,0.5994,0.6123,0.6072,0.6086,0.6151,0.628,0.629,0.6299,0.6388,0.641,0.6429,0,0,0,0,0,0,0.5942,0.5946,0.5919,0.6014,0.6035,0.6042,0.6095,0.6063,0.6098,0.6089,0.6059,0.6064,0.6154,0.616,0.6102,0.6263,0.6194,0.6207,0.6256,0.6278,0.6294,0.6293,0.6026,0,0,0,0,0,0.5972,0.6021,0.6021,0.6105,0.6117,0.6105,0.613,0.6111,0.6131,0.614,0.6145,0.6168,0.6214,0.6245,0.6287,0.6395,0.64,0.6447,0.6464,0.6478,0.6491,0.6554,0.6576,0.6337,0.6337,0.6337,0,0,0.6035,0.6043,0.6075,0.6123,0.6137,0.619,0.6112,0.6171,0.6211,0.6149,0.6229,0.6233,0.6257,0.6354,0.6396,0.6362,0.6558,0.6491,0.6502,0.6508,0.6566,0.6589,0.6609,0.6344,0.6342,0.6341,0,0,0.6178,0.6186,0.626,0.6275,0.6297,0.6289,0.6306,0.6319,0.632,0.6398,0.6355,0.6402,0.6481,0.6501,0.6522,0.6675,0.6641,0.6689,0.6779,0.684,0.6859,0.6876,0.6936,0.6957,0.6701,0.6702,0.6702,0,0.6253,0.633,0.6301,0.6364,0.6389,0.6334,0.641,0.6427,0.6462,0.6481,0.6441,0.6542,0.6553,0.6657,0.6695,0.6711,0.6734,0.6689,0.6859,0.6875,0.689,0.6947,0.6969,0.6708,0.6707,0.6706,0.6706,0,0.6425,0.6479,0.6536,0.6572,0.6602,0.6671,0.6655,0.6689,0.6667,0.6663,0.6746,0.6758,0.6804,0.6826,0.6805,0.6928,0.6907,0.6863,0.6793,0.692,0.6973,0.6994,0.6717,0.6714,0.6712,0.6711,0,0,0.6625,0.6645,0.6666,0.6684,0.6705,0.6748,0.6815,0.686,0.6892,0.6918,0.6977,0.7046,0.7007,0.7031,0.7011,0.7064,0.7191,0.7014,0.7015,0.7051,0.7333,0.737,0.7395,0.7167,0.717,0.7174,0.7333,0,0.677,0.6887,0.6864,0.6979,0.7031,0.6981,0.7041,0.7062,0.7061,0.7106,0.7105,0.7157,0.7098,0.7113,0.7163,0.7165,0.7248,0.7152,0.7225,0.7228,0.7226,0.7422,0.7459,0.761,0.7353,0.7356,0.7359,0,0.6956,0.699,0.7111,0.7127,0.7148,0.7202,0.7244,0.7286,0.731,0.7306,0.7334,0.7305,0.7375,0.7302,0.7401,0.7337,0.7365,0.737,0.7376,0.7386,0.7305,0.7442,0.7656,0.7681,0.739,0.7388,0.7385,0,0.7096,0.7172,0.7255,0.7271,0.729,0.7331,0.7341,0.736,0.739,0.7426,0.7446,0.7489,0.7514,0.755,0.7535,0.7482,0.7639,0.7563,0.7641,0.7642,0.768,0.7679,0.7907,0.769,0.769,0.7689,0.7689,0,0.7264,0.7341,0.7319,0.7371,0.7457,0.743,0.7516,0.752,0.7539,0.7593,0.7551,0.7602,0.7577,0.7628,0.7616,0.7703,0.7713,0.7715,0.7712,0.7722,0.7722,0.7743,0.7734,0.7695,0.7694,0.7693,0.7692,0,0.7437,0.7424,0.7513,0.7524,0.7529,0.7593,0.7604,0.7654,0.7649,0.7718,0.7733,0.7726,0.7784,0.7772,0.7834,0.7827,0.7938,0.7919,0.7931,0.7928,0.8009,0.8004,0.8263,0.8298,0.8053,0.8056,0.8057,0,0.7547,0.7606,0.7624,0.7657,0.7671,0.7724,0.7754,0.773,0.7764,0.7797,0.7844,0.7898,0.794,0.8035,0.8038,0.8087,0.8073,0.816,0.808,0.8089,0.8081,0.8079,0.8088,0.8177,0.818,0.8182,0.8184,0,0.7747,0.7738,0.7783,0.7827,0.7865,0.7898,0.7928,0.7957,0.7936,0.7977,0.8035,0.8068,0.8133,0.8189,0.8235,0.8248,0.8215,0.8209,0.8231,0.8244,0.8251,0.8254,0.798,0.8204,0.8202,0.8201,0.82,0.8199,0.7895,0.7947,0.7969,0.8022,0.8041,0.8071,0.812,0.8122,0.817,0.8221,0.8203,0.8272,0.8297,0.8356,0.8374,0.8429,0.8396,0.8426,0.8435,0.8444,0.8457,0.8237,0.8436,0.8435,0.8435,0.8434,0.8434,0,0.8098,0.8109,0.8158,0.8201,0.8244,0.8206,0.8238,0.8277,0.8337,0.8363,0.8406,0.8475,0.853,0.8537,0.8589,0.8632,0.8619,0.8647,0.8647,0.8651,0.848,0.8458,0.8658,0.8658,0.8657,0.8657,0.8657,0.8657,0.8208,0.8295,0.8289,0.8387,0.8398,0.8465,0.8487,0.8515,0.8536,0.8616,0.8661,0.8664,0.8684,0.8738,0.8787,0.8788,0.8812,0.8848,0.8843,0.8684,0.8662,0.8641,0.8621,0.8851,0.8852,0.9011,0.9012,0.9013]}]]